Погода в Бруте

Россия / Республика Северная Осетия — Алания     43°15′54″N   44°26′45″E
темп.,
°C
ветер,
м/с
пор.,
м/с
влажн.,
%
обл.,
%
осадки,
мм/ч
давл.,
гПа
погр.,
м
3 августа, вт
вт300:00+19юв117816 0.0 101211
03:00+18ю11736 0.0 101211
06:00+19ю11745 0.0 101313
09:00+26зюз11555 0.0 1013290
12:00+30ссз11420 0.0 10121041
15:00+31зсз21400 0.0 10111605
18:00+28зсз23592 0.0 101162
21:00+22ююз11661 0.3 101211
4 августа, ср
ср400:00+21ю11700 0.0 101311
03:00+20ююв225858 0.0 101412
06:00+21юв115711 0.0 101411
09:00+28зсз11444 0.0 1014242
12:00+31ссз32371 0.0 10131470
15:00+32сз22355 0.0 10131904
18:00+29з1249100 0.0 101313
21:00+22юз1273100 2.6 101516
5 августа, чт
чт500:00+21ююв017897 1.6 101513
03:00+20юз11784 1.6 101411
06:00+20з117774 0.3 101513
09:00+25з22624 0.4 1016459
12:00+30с12471 0.0 10141165
15:00+31ссв22420 0.0 10121748
18:00+29зсз01538 0.0 101211
21:00+23ююз22640 0.0 101212
6 августа, пт
пт600:00+21вюв11743 0.0 101211
03:00+20ю22730 0.0 101111
06:00+21ююв11680 0.0 101112
09:00+27вюв12520 0.0 1011373
12:00+32всв45390 0.0 10091309
15:00+34в45320 0.0 10061821
18:00+32ссв11460 0.0 100521
21:00+24в474423 0.0 1007110
7 августа, сб
сб700:00+21юв225299 0.0 100617
03:00+20вюв115369 0.0 100611
06:00+21юв005767 0.0 100611
09:00+27сз11455 0.0 1005305
12:00+32с223382 0.0 1004895
15:00+33зсз32346 0.0 10031166
18:00+28зюз3355100 0.0 100546
21:00+25з2354100 0.0 100755